Location: ???????
(56.2167°N, 38.0500°E)
Time: 03:35:29
(UTC+00:00)

SL-14 R/B - Pass Details

Date: 19 May 2025
Orbit: 501 x 529 km, 82.4° (Epoch: 14 June)

Event Time Altitude Azimuth Distance (km) Brightness Sun altitude
Exits shadow 22:19:02 21° 186° (S) 1,188 4.4 -12.9°
Maximum altitude 22:21:29 81° 101° (E) 535 3.2 -12.9°
Drops below altitude 10° 22:25:23 10° 14° (NNE) 1,777 7.4 -12.7°
Sets 22:27:33 0° 14° (NNE) 2,676 9.0 -12.6°
